Overview Statistics Trail Chart Weather Telemetry Raw packets
 

This is the latest recevied weather packets stored in our database for station/object KG5MMT-15. If no packets are shown the sender has not sent any weather packets the latest 10 day(s).

<< 45 46 47 48 49 50 51 >>
Time Temp. Humidity Pressure Rain* Wind** Luminosity Snow
1788385666 28.33° C 21% 0 hPa 0 mm - - -
1788385366 28.33° C 22% 0 hPa 0 mm - - -
1788385066 27.22° C 21% 0 hPa 0 mm - - -
1788384766 27.78° C 21% 0 hPa 0 mm - - -
1788384466 28.33° C 20% 0 hPa 0 mm - - -
1788384166 27.78° C 20% 0 hPa 0 mm - - -
1788383866 27.78° C 20% 0 hPa 0 mm - - -
1788383566 27.78° C 18% 0 hPa 0 mm - - -
1788383266 28.33° C 20% 0 hPa 0 mm - - -
1788382966 28.33° C 20% 0 hPa 0 mm - - -
1788382666 27.78° C 20% 0 hPa 0 mm - - -
1788382366 27.78° C 21% 0 hPa 0 mm - - -
1788382066 27.78° C 21% 0 hPa 0 mm - - -
1788381766 27.22° C 24% 0 hPa 0 mm - - -
1788381466 26.67° C 25% 0 hPa 0 mm - - -
1788381166 26.67° C 25% 0 hPa 0 mm - - -
1788380866 26.67° C 24% 0 hPa 0 mm - - -
1788380566 27.22° C 21% 0 hPa 0 mm - - -
1788380266 28.33° C 20% 0 hPa 0 mm - - -
1788379966 28.33° C 22% 0 hPa 0 mm - - -
1788379667 27.78° C 23% 0 hPa 0 mm - - -
1788379367 27.22° C 23% 0 hPa 0 mm - - -
1788379067 26.67° C 23% 0 hPa 0 mm - - -
1788378767 26.11° C 25% 0 hPa 0 mm - - -
1788378467 27.22° C 25% 0 hPa 0 mm - - -

* Rain latest hour (hover to see other rain measurements)
** Current wind speed in m/s (hover to see current wind gust speed)